�������l�o���
Date,Time,MP-1(��Sv/h),MP-2(��Sv/h),MP-3(��Sv/h),MP-4(��Sv/h),MP-5(��Sv/h),MP-6(��Sv/h),MP-7(��Sv/h),����,����(m/s),���J
2020/08/24,00:00,0.183,0.167,0.279,0.265,0.253,0.144,0.086,-,CALM,��
2020/08/24,00:10,0.182,0.169,0.279,0.264,0.249,0.143,0.087,�k�k��,0.6,��
2020/08/24,00:20,0.184,0.169,0.277,0.262,0.252,0.144,0.087,�k�k��,0.7,��
2020/08/24,00:30,0.185,0.168,0.280,0.263,0.255,0.146,0.087,�k,1.2,��
2020/08/24,00:40,0.182,0.170,0.280,0.265,0.252,0.144,0.088,�k�k��,2.0,��
2020/08/24,00:50,0.184,0.169,0.277,0.264,0.250,0.144,0.088,�k�k��,2.4,��
2020/08/24,01:00,0.184,0.168,0.279,0.266,0.254,0.145,0.087,�k�k��,2.1,��
2020/08/24,01:10,0.184,0.169,0.281,0.266,0.252,0.145,0.087,�k,2.0,��
2020/08/24,01:20,0.182,0.170,0.277,0.263,0.250,0.144,0.087,�k�k��,1.8,��
2020/08/24,01:30,0.185,0.168,0.278,0.265,0.251,0.144,0.086,�k�k��,2.6,��
2020/08/24,01:40,0.183,0.168,0.280,0.266,0.254,0.144,0.087,�k�k��,2.8,��
2020/08/24,01:50,0.183,0.169,0.279,0.264,0.252,0.144,0.087,�k�k��,3.2,��
2020/08/24,02:00,0.184,0.168,0.277,0.263,0.249,0.144,0.087,�k��,2.3,��
2020/08/24,02:10,0.185,0.168,0.280,0.265,0.254,0.145,0.086,�k�k��,2.3,��
2020/08/24,02:20,0.184,0.169,0.279,0.264,0.251,0.145,0.087,�k��,1.8,��
2020/08/24,02:30,0.182,0.169,0.277,0.262,0.250,0.143,0.087,�k��,1.9,��
2020/08/24,02:40,0.185,0.168,0.278,0.266,0.252,0.145,0.087,�k�k��,2.0,��
2020/08/24,02:50,0.184,0.168,0.280,0.264,0.253,0.145,0.087,�k,2.1,��
2020/08/24,03:00,0.182,0.169,0.277,0.263,0.251,0.144,0.087,�k�k��,2.4,��
2020/08/24,03:10,0.182,0.167,0.277,0.265,0.249,0.144,0.087,�k��,1.8,��
2020/08/24,03:20,0.185,0.169,0.280,0.265,0.253,0.145,0.086,�k�k��,2.9,��
2020/08/24,03:30,0.182,0.170,0.278,0.263,0.254,0.144,0.087,�k��,2.5,��
2020/08/24,03:40,0.183,0.169,0.277,0.266,0.250,0.144,0.088,�k��,1.9,��
2020/08/24,03:50,0.185,0.168,0.279,0.267,0.252,0.145,0.087,�k��,2.1,��
2020/08/24,04:00,0.183,0.169,0.277,0.263,0.253,0.144,0.087,�k�k��,2.0,��
2020/08/24,04:10,0.182,0.167,0.278,0.265,0.250,0.144,0.087,�k�k��,3.2,��
2020/08/24,04:20,0.184,0.168,0.280,0.264,0.252,0.146,0.086,�k�k��,2.4,��
2020/08/24,04:30,0.183,0.168,0.278,0.263,0.254,0.144,0.087,�k��,0.9,��
2020/08/24,04:40,0.182,0.167,0.277,0.265,0.252,0.144,0.087,�k��,0.7,��
2020/08/24,04:50,0.183,0.168,0.278,0.266,0.251,0.144,0.087,�k�k��,2.6,��
2020/08/24,05:00,0.184,0.168,0.277,0.263,0.254,0.144,0.087,-,CALM,��
2020/08/24,05:10,0.182,0.168,0.276,0.264,0.251,0.142,0.087,-,CALM,��
2020/08/24,05:20,0.183,0.168,0.279,0.264,0.248,0.144,0.086,-,CALM,��
2020/08/24,05:30,0.184,0.168,0.277,0.262,0.252,0.144,0.086,�k�k��,2.3,��
2020/08/24,05:40,0.183,0.168,0.277,0.263,0.252,0.143,0.087,�k�k��,2.3,��
2020/08/24,05:50,0.183,0.168,0.280,0.265,0.249,0.144,0.086,�k�k��,2.3,��
2020/08/24,06:00,0.185,0.169,0.277,0.263,0.249,0.144,0.086,�k�k��,0.6,��
2020/08/24,06:10,0.184,0.168,0.276,0.261,0.254,0.144,0.086,-,CALM,��
2020/08/24,06:20,0.182,0.167,0.278,0.265,0.251,0.144,0.085,�k�k��,1.3,��
2020/08/24,06:30,0.183,0.168,0.278,0.264,0.249,0.144,0.088,�k�k��,3.4,��
2020/08/24,06:40,0.184,0.169,0.277,0.262,0.250,0.143,0.087,�k�k��,3.4,��
2020/08/24,06:50,0.183,0.167,0.275,0.262,0.252,0.144,0.086,�k�k��,1.5,��
2020/08/24,07:00,0.181,0.168,0.274,0.261,0.253,0.143,0.087,�k,2.8,��
2020/08/24,07:10,0.180,0.167,0.279,0.265,0.252,0.143,0.086,�k�k��,2.0,��
2020/08/24,07:20,0.184,0.168,0.280,0.264,0.250,0.144,0.087,�k�k��,1.7,��
2020/08/24,07:30,0.185,0.168,0.278,0.264,0.249,0.144,0.085,�k,2.3,�L
2020/08/24,07:40,0.183,0.168,0.277,0.261,0.248,0.142,0.086,�k,2.8,��
2020/08/24,07:50,0.181,0.168,0.275,0.261,0.249,0.143,0.086,�k�k��,2.9,��
2020/08/24,08:00,0.181,0.167,0.276,0.260,0.248,0.143,0.086,�k�k��,3.1,��
2020/08/24,08:10,0.180,0.166,0.274,0.262,0.249,0.143,0.085,�k,3.7,��
2020/08/24,08:20,0.181,0.168,0.274,0.261,0.248,0.144,0.086,�k,4.3,��
2020/08/24,08:30,0.182,0.167,0.275,0.263,0.251,0.143,0.085,�k,4.7,��
2020/08/24,08:40,0.181,0.168,0.277,0.262,0.250,0.143,0.086,�k,4.7,��
2020/08/24,08:50,0.181,0.166,0.277,0.262,0.250,0.143,0.086,�k,4.8,��
2020/08/24,09:00,0.182,0.167,0.279,0.263,0.250,0.143,0.086,�k,6.0,��
2020/08/24,09:10,0.181,0.167,0.278,0.264,0.251,0.144,0.086,�k�k��,6.4,��
2020/08/24,09:20,0.182,0.167,0.278,0.263,0.251,0.144,0.086,�k,6.0,��
2020/08/24,09:30,0.181,0.167,0.276,0.264,0.251,0.144,0.086,�k�k��,7.4,��
2020/08/24,09:40,0.180,0.168,0.277,0.263,0.252,0.144,0.086,�k�k��,6.7,��
2020/08/24,09:50,0.182,0.168,0.277,0.264,0.251,0.143,0.086,�k�k��,6.8,��
2020/08/24,10:00,0.183,0.167,0.276,0.263,0.251,0.143,0.086,�k�k��,6.5,��
2020/08/24,10:10,0.182,0.168,0.278,0.263,0.251,0.145,0.086,�k�k��,6.4,��
2020/08/24,10:20,0.182,0.167,0.277,0.263,0.251,0.144,0.086,�k�k��,6.1,��
2020/08/24,10:30,0.183,0.167,0.276,0.264,0.251,0.143,0.086,�k�k��,5.6,��
2020/08/24,10:40,0.182,0.167,0.278,0.264,0.250,0.143,0.086,�k�k��,7.3,��
2020/08/24,10:50,0.182,0.169,0.276,0.265,0.250,0.143,0.086,�k�k��,6.2,��
2020/08/24,11:00,0.181,0.167,0.277,0.264,0.249,0.143,0.087,�k�k��,6.0,��
2020/08/24,11:10,0.182,0.167,0.277,0.263,0.251,0.144,0.086,�k�k��,6.2,��
2020/08/24,11:20,0.183,0.168,0.277,0.264,0.251,0.144,0.086,�k�k��,7.0,��
2020/08/24,11:30,0.182,0.167,0.277,0.262,0.250,0.144,0.086,�k�k��,5.7,��
2020/08/24,11:40,0.183,0.168,0.278,0.263,0.250,0.144,0.087,�k�k��,6.9,��
2020/08/24,11:50,0.182,0.168,0.279,0.264,0.251,0.144,0.087,�k�k��,7.0,��
2020/08/24,12:00,0.182,0.168,0.277,0.263,0.252,0.144,0.086,�k�k��,7.7,��
2020/08/24,12:10,0.182,0.168,0.279,0.264,0.252,0.143,0.086,�k,7.1,��
2020/08/24,12:20,0.181,0.168,0.278,0.263,0.252,0.144,0.086,�k�k��,6.6,��
2020/08/24,12:30,0.183,0.166,0.278,0.263,0.251,0.144,0.087,�k�k��,9.0,��
2020/08/24,12:40,0.181,0.168,0.277,0.263,0.251,0.144,0.087,�k�k��,8.3,��
2020/08/24,12:50,0.182,0.168,0.277,0.263,0.250,0.144,0.086,�k�k��,7.6,��
2020/08/24,13:00,0.183,0.168,0.278,0.264,0.251,0.144,0.086,�k�k��,6.4,��
2020/08/24,13:10,0.182,0.168,0.277,0.263,0.251,0.144,0.086,�k�k��,6.5,��
2020/08/24,13:20,0.182,0.168,0.277,0.264,0.251,0.143,0.086,�k�k��,7.0,��
2020/08/24,13:30,0.183,0.167,0.277,0.263,0.250,0.144,0.086,�k,6.0,��
2020/08/24,13:40,0.182,0.168,0.276,0.264,0.251,0.144,0.087,�k,4.9,��
2020/08/24,13:50,0.182,0.168,0.277,0.262,0.250,0.144,0.086,�k,5.0,��
2020/08/24,14:00,0.182,0.167,0.279,0.263,0.250,0.144,0.087,�k�k��,6.3,��
2020/08/24,14:10,0.182,0.167,0.277,0.262,0.251,0.144,0.086,�k�k��,5.3,��
2020/08/24,14:20,0.182,0.168,0.277,0.264,0.251,0.144,0.086,�k,5.1,��
2020/08/24,14:30,0.183,0.168,0.277,0.264,0.250,0.145,0.087,�k,5.1,��
2020/08/24,14:40,0.182,0.168,0.277,0.263,0.251,0.144,0.087,�k,5.2,��
2020/08/24,14:50,0.182,0.166,0.277,0.264,0.250,0.144,0.086,�k,5.9,��
2020/08/24,15:00,0.182,0.167,0.277,0.263,0.249,0.144,0.086,�k,5.0,��
2020/08/24,15:10,0.181,0.167,0.277,0.263,0.251,0.143,0.086,�k,5.7,��
2020/08/24,15:20,0.181,0.167,0.275,0.262,0.251,0.143,0.086,�k,4.9,��
2020/08/24,15:30,0.181,0.167,0.277,0.261,0.251,0.144,0.086,�k�k��,5.4,��
2020/08/24,15:40,0.182,0.166,0.276,0.262,0.250,0.144,0.085,�k,4.9,��
2020/08/24,15:50,0.182,0.166,0.276,0.262,0.251,0.144,0.085,�k,5.6,��
2020/08/24,16:00,0.181,0.166,0.279,0.262,0.250,0.145,0.086,�k,4.4,��
2020/08/24,16:10,0.182,0.168,0.281,0.265,0.249,0.144,0.085,�k,4.8,��
2020/08/24,16:20,0.184,0.168,0.278,0.266,0.249,0.144,0.087,�k,5.3,��
2020/08/24,16:30,0.183,0.168,0.278,0.264,0.250,0.144,0.086,�k,5.4,��
2020/08/24,16:40,0.183,0.167,0.276,0.263,0.250,0.143,0.086,�k,5.4,��
2020/08/24,16:50,0.182,0.167,0.278,0.262,0.249,0.143,0.085,�k,5.5,��
2020/08/24,17:00,0.184,0.168,0.281,0.262,0.251,0.143,0.085,�k,5.1,��
2020/08/24,17:10,0.185,0.169,0.279,0.266,0.250,0.144,0.086,�k,4.7,��
2020/08/24,17:20,0.183,0.167,0.278,0.266,0.250,0.144,0.086,�k,5.3,��
2020/08/24,17:30,0.182,0.166,0.277,0.263,0.249,0.144,0.086,�k,4.1,��
2020/08/24,17:40,0.183,0.167,0.282,0.261,0.252,0.143,0.086,�k,4.4,��
2020/08/24,17:50,0.184,0.168,0.278,0.266,0.253,0.143,0.087,�k�k��,2.7,��
2020/08/24,18:00,0.183,0.168,0.277,0.266,0.251,0.144,0.086,�k,3.6,��
2020/08/24,18:10,0.181,0.167,0.278,0.264,0.249,0.145,0.086,�k,3.2,��
2020/08/24,18:20,0.185,0.169,0.280,0.263,0.252,0.144,0.086,�k�k��,3.7,��
2020/08/24,18:30,0.184,0.168,0.278,0.266,0.253,0.144,0.087,�k,2.7,��
2020/08/24,18:40,0.182,0.167,0.277,0.264,0.251,0.143,0.086,�k�k��,3.5,��
2020/08/24,18:50,0.182,0.168,0.280,0.263,0.249,0.144,0.086,�k�k��,4.8,��
2020/08/24,19:00,0.184,0.168,0.279,0.267,0.253,0.144,0.086,�k,3.7,��
2020/08/24,19:10,0.183,0.167,0.277,0.264,0.252,0.145,0.086,�k�k��,4.5,��
2020/08/24,19:20,0.182,0.168,0.280,0.262,0.250,0.144,0.087,�k�k��,5.0,��
2020/08/24,19:30,0.184,0.169,0.279,0.266,0.250,0.144,0.085,�k�k��,4.5,��
2020/08/24,19:40,0.183,0.167,0.277,0.265,0.253,0.143,0.086,�k�k��,4.9,��
2020/08/24,19:50,0.183,0.166,0.279,0.261,0.251,0.144,0.086,�k�k��,5.6,��
2020/08/24,20:00,0.181,0.169,0.279,0.264,0.248,0.145,0.086,�k�k��,5.3,��
2020/08/24,20:10,0.184,0.168,0.277,0.266,0.252,0.144,0.086,�k�k��,5.9,��
2020/08/24,20:20,0.183,0.168,0.278,0.263,0.251,0.143,0.087,�k�k��,5.5,��
2020/08/24,20:30,0.182,0.167,0.280,0.262,0.249,0.144,0.085,�k�k��,5.3,�L
2020/08/24,20:40,0.182,0.169,0.278,0.265,0.250,0.145,0.085,�k�k��,4.8,�L
2020/08/24,20:50,0.185,0.168,0.276,0.264,0.253,0.144,0.087,�k,2.7,�L
2020/08/24,21:00,0.184,0.167,0.280,0.262,0.250,0.143,0.086,�k�k��,2.6,��
2020/08/24,21:10,0.182,0.168,0.278,0.265,0.248,0.144,0.085,�k,2.4,��
2020/08/24,21:20,0.183,0.168,0.276,0.265,0.251,0.144,0.086,�k,2.9,��
2020/08/24,21:30,0.184,0.167,0.279,0.263,0.252,0.144,0.087,�k�k��,2.5,��
2020/08/24,21:40,0.184,0.167,0.280,0.261,0.251,0.143,0.086,�k,2.2,��
2020/08/24,21:50,0.182,0.169,0.278,0.266,0.247,0.144,0.086,�k�k��,2.5,��
2020/08/24,22:00,0.183,0.168,0.275,0.265,0.252,0.146,0.086,�k�k��,1.8,��
2020/08/24,22:10,0.184,0.167,0.280,0.263,0.252,0.145,0.086,�k,3.9,��
2020/08/24,22:20,0.182,0.167,0.279,0.263,0.250,0.143,0.087,�k,3.1,��
2020/08/24,22:30,0.181,0.169,0.276,0.266,0.249,0.144,0.086,�k�k��,4.6,��
2020/08/24,22:40,0.184,0.168,0.278,0.263,0.253,0.145,0.086,�k�k��,4.0,��
2020/08/24,22:50,0.184,0.167,0.280,0.263,0.253,0.144,0.087,�k�k��,4.0,��
2020/08/24,23:00,0.183,0.168,0.276,0.265,0.249,0.143,0.086,�k�k��,4.3,��
2020/08/24,23:10,0.184,0.169,0.277,0.263,0.251,0.144,0.087,�k�k��,4.8,��
2020/08/24,23:20,0.184,0.168,0.280,0.261,0.252,0.145,0.087,�k�k��,4.5,��
2020/08/24,23:30,0.183,0.167,0.278,0.265,0.251,0.144,0.086,�k,4.5,��
2020/08/24,23:40,0.182,0.169,0.275,0.266,0.249,0.143,0.086,�k�k��,4.9,��
2020/08/24,23:50,0.184,0.168,0.279,0.262,0.253,0.144,0.087,�k�k��,4.7,��
